Regional Weather Roundup
Issued by NWS

Home | Current Version | Previous Version | Text Only | Print | Product List | Glossary On
Versions: 1 2 3 4 5 6 7 8 9 10 11 12 13 14 15 16 17 18 19 20 21 22 23 24 25 26 27 28 29 30 31 32 33 34 35 36 37 38 39 40 41 42 43 44 45 46 47 48 49 50
000
ASUS46 KPQR 271010
RWROR

OREGON REGIONAL WEATHER ROUNDUP
NATIONAL WEATHER SERVICE PORTLAND OR
300 AM PDT WED AUG 27 2014

NOTE: "FAIR" INDICATES FEW OR NO CLOUDS BELOW 12,000 FEET WITH
NO SIGNIFICANT WEATHER AND/OR OBSTRUCTIONS TO VISIBILITY.

ORZ001>013-271100-
NORTHWEST OREGON


CITY           SKY/WX    TMP DP  RH WIND       PRES   REMARKS
ASTORIA        CLOUDY    57  55  93 W6        30.05R
NEWPORT        FOG       52  52 100 N6        30.07R VSB 3/4
PORTLAND       FAIR      70  58  65 CALM      30.00R
VANCOUVER WA   FAIR      66  56  70 CALM      29.99R
SCAPPOOSE      FAIR      64  56  75 CALM      29.98R
HILLSBORO      FAIR      64  53  67 CALM      29.99R
AURORA         FAIR      65  55  70 CALM      30.00R
MCMINNVILLE    FAIR      65  53  65 NW3       30.00R
SALEM          FAIR      65  52  62 CALM      29.98S
CORVALLIS      FAIR      64  52  63 NW8       30.01R
EUGENE         FAIR      62  49  62 S5        30.00R
$$

ORZ021-028-271100-
SOUTHWEST OREGON


CITY           SKY/WX    TMP DP  RH WIND       PRES   REMARKS
NORTH BEND     CLOUDY    55  55 100 N8        30.06S
BROOKINGS      PTSUNNY   52  52 100 CALM      30.03S FOG
ROSEBURG       FAIR      67  50  54 CALM      30.01R
SEXTON SUMMIT  FAIR      67  46  47 NE7       30.14S
MEDFORD        FAIR      67  47  48 CALM      30.02R
$$

ORZ009-041-271100-
COLUMBIA GORGE


CITY           SKY/WX    TMP DP  RH WIND       PRES   REMARKS
TROUTDALE      FAIR      65  56  72 CALM      29.98R
THE DALLES     FAIR      70  52  52 NW6       29.95S
$$

ORZ029>031-042>050-061>064-271100-
EASTERN OREGON


CITY           SKY/WX    TMP DP  RH WIND       PRES   REMARKS
REDMOND        FAIR      55  37  50 S3        30.11R
BEND           FAIR      57  39  51 SW7       30.14R
KLAMATH FALLS  FAIR      51  45  79 CALM      30.15R
LAKEVIEW       FAIR      48  30  49 NW7       30.20R
HERMISTON      FAIR      57  46  66 SE5       29.96R
PENDLETON      FAIR      63  43  48 SE9       29.99S
JOHN DAY       FAIR      58  32  37 SE12      30.15R
MEACHAM        FAIR      43  39  86 CALM      30.12F
LA GRANDE      FAIR      54  34  47 CALM      30.09R
BAKER CITY     FAIR      46  42  86 CALM      30.12S
BURNS          FAIR      46  34  62 CALM      30.16S
ROME             N/A     55  35  47 SE6       30.14S
ONTARIO        FAIR      55  45  68 CALM      30.08R
$$


USA.gov is the U.S. government's official web portal to all federal, state and local government web resources and services.